Home > Weather > Vellore > Past weeks

Flag for India Weather for the Past 2 Weeks in Vellore, Tamil Nadu, India

Now
86 °F

Passing clouds.


Feels Like: 102 °F
Forecast: 78 / 101 °F
Wind: 6 mph from South

Location: Madras / Minambakkam

Current Time: May 5, 2016 at 2:51:26 AM

Latest Report: May 5, 2016 at 12:00 AM


Visibility: 4 mi

Pressure: 29.74 "Hg

Humidity: 84%

Dew Point: 81 °F

Location of VelloreLocation

Historic Weather in Vellore — Graph

°F

Vellore Temperature Yesterday

Maximum temperature yesterday: 99 °F (at 12:30 PM)
Minimum temperature yesterday: 86 °F (at 2:00 AM)
Average temperature yesterday: 90 °F

High & Low Weather Summary for the Past Weeks

 TemperatureHumidityPressure
High106 °F (Apr 22, 2:00 PM)94% (Apr 28, 6:00 AM)29.86 "Hg (Apr 28, 6:00 AM)
Low81 °F (Apr 20, 5:00 AM)30% (Apr 22, 2:30 PM)29.56 "Hg (Apr 23, 4:00 PM)
Average90 °F69%29.72 "Hg
* Reported Apr 19 11:30 PM — May 4 11:30 PM, Vellore, Weather by CustomWeather, © 2016

Note: Actual official high and low records may vary slightly from our data, if they occured in-between our weather recording intervals... More about our weather records

Advertising

Vellore Weather History for the Previous 24 Hours

Scroll right to see more
 ConditionsComfort  
Time TempWeatherWind HumidityBarometerVisibility
11:30 PM
Wed, May 4
86 °FClear.7 mph84%29.74 "Hg4 mi
11:00 PM86 °FClear.10 mph84%29.74 "Hg4 mi
10:00 PM88 °FClear.12 mph75%29.77 "Hg4 mi
9:30 PM88 °FClear.14 mph75%29.74 "Hg4 mi
9:00 PM88 °FClear.14 mph75%29.74 "Hg4 mi
8:30 PM88 °FClear.14 mph75%29.74 "Hg4 mi
8:00 PM88 °FClear.12 mph75%29.71 "Hg4 mi
7:30 PM88 °FClear.12 mph75%29.71 "Hg4 mi
7:00 PM90 °FClear.12 mph67%29.68 "Hg4 mi
6:30 PM90 °FClear.12 mph67%29.68 "Hg4 mi
6:00 PM91 °FClear.14 mph59%29.68 "Hg5 mi
4:30 PM95 °FPassing clouds.14 mph53%29.68 "Hg5 mi
4:00 PM95 °FPassing clouds.12 mph53%29.68 "Hg5 mi
3:30 PM95 °FPassing clouds.12 mph53%29.68 "Hg5 mi
3:00 PM97 °FPassing clouds.14 mph50%29.68 "Hg5 mi
2:30 PM97 °FPassing clouds.12 mph50%29.68 "Hg5 mi
1:30 PM99 °FPassing clouds.14 mph50%29.71 "Hg5 mi
1:00 PM99 °FPassing clouds.9 mph47%29.74 "Hg5 mi
12:30 PM99 °FPassing clouds.12 mph47%29.74 "Hg5 mi
12:00 PM97 °FPassing clouds.10 mph47%29.77 "Hg5 mi
11:30 AM95 °FPassing clouds.7 mph53%29.77 "Hg5 mi
11:00 AM93 °FScattered clouds.8 mph59%29.80 "Hg4 mi
10:30 AM93 °FScattered clouds.9 mph59%29.80 "Hg4 mi
10:00 AM93 °FScattered clouds.5 mph59%29.83 "Hg4 mi
9:30 AM91 °FScattered clouds.6 mph67%29.83 "Hg4 mi
9:00 AM90 °FScattered clouds.7 mph71%29.80 "Hg4 mi
8:30 AM88 °FScattered clouds.7 mph79%29.80 "Hg4 mi
8:00 AM88 °FScattered clouds.8 mph79%29.80 "Hg4 mi
7:30 AM88 °FScattered clouds.3 mph79%29.77 "Hg4 mi
7:00 AM88 °FScattered clouds.No wind79%29.77 "Hg4 mi
6:30 AM86 °FScattered clouds.2 mph84%29.77 "Hg4 mi
6:00 AM86 °FPassing clouds.No wind84%29.74 "Hg4 mi
5:30 AM86 °FPassing clouds.No wind84%29.74 "Hg4 mi
5:00 AM86 °FPassing clouds.No wind84%29.71 "Hg4 mi
4:30 AM86 °FPassing clouds.No wind84%29.71 "Hg4 mi
3:30 AM86 °FPassing clouds.5 mph84%29.71 "Hg4 mi
3:00 AM86 °FPassing clouds.No wind84%29.71 "Hg4 mi
2:30 AM86 °FPassing clouds.No wind84%29.71 "Hg4 mi
2:00 AM86 °FPassing clouds.2 mph84%29.71 "Hg4 mi
Weather by CustomWeather, © 2016

See weather overviewHow to use our weather pages